Regional Weather Roundup
Issued by NWS

Home | Current Version | Previous Version | Text Only | Print | Product List | Glossary On
Versions: 1 2 3 4 5 6 7 8 9 10 11 12 13 14 15 16 17 18 19 20 21 22 23 24 25 26 27 28 29 30 31 32 33 34 35 36 37 38 39 40 41 42 43 44 45 46 47 48 49 50
000
ASUS44 KLUB 211101
RWRTX
WEST TEXAS WEATHER ROUNDUP
NATIONAL WEATHER SERVICE LUBBOCK TX
600 AM CDT TUE OCT 21 2014

NOTE: "FAIR" INDICATES FEW OR NO CLOUDS BELOW 12,000 FEET WITH NO
SIGNIFICANT WEATHER AND/OR OBSTRUCTIONS TO VISIBILITY.

TXZ004-006>008-010-012-014-016-OKZ002-211200-
TEXAS PANHANDLE/OKLAHOMA PANHANDLE

CITY           SKY/WX    TMP DP  RH WIND       PRES   REMARKS
AMARILLO       PTCLDY    53  50  89 S7        30.12R
BORGER         CLEAR     57  50  77 CALM      30.09R
CANADIAN       CLEAR     56  54  94 W3        30.07R
DALHART        CLEAR     46  44  93 SW5       30.12S
DUMAS          CLEAR     52  47  85 SW8       30.10S
GUYMON         PTCLDY    49  47  93 SW3       30.07R
HEREFORD       PTCLDY    50  49  96 CALM      30.13S
PAMPA          CLEAR     55  51  86 SW7       30.11S
$$

TXZ026-029-035-045-048-211200-
SOUTHERN PANHANDLE/SOUTH PLAINS/ROLLING PLAINS

CITY           SKY/WX    TMP DP  RH WIND       PRES   REMARKS
CHILDRESS      CLEAR     60  53  77 SW5       30.08R
LUBBOCK        PTCLDY    51  47  86 CALM      30.11R
SNYDER         CLEAR     58  53  84 SE6       30.10R
$$

TXZ052-054-060>062-072-078-127-140-154-169-211200-
PERMIAN BASIN/CONCHO VALLEY/BIG COUNTRY/EDWARDS PLATEAU

CITY           SKY/WX    TMP DP  RH WIND       PRES   REMARKS
ABILENE        CLEAR     61  54  77 SE6       30.08R
BIG SPRING     PTCLDY    60  55  82 SE3       30.11R
JUNCTION       PTCLDY    53  51  93 W3        30.07S
MIDLAND        CLOUDY    61  52  72 SE6       30.09R
ODESSA         MOCLDY    61  51  70 CALM      30.09S
SAN ANGELO     PTCLDY    57  51  80 CALM      30.07S
SONORA         MOCLDY    63  55  77 CALM      30.11S
WINK           MOCLDY    61  59  93 E5        30.06S
$$

TXZ055-058-074-075-080-082-211200-
FAR WEST/SOUTHWEST MOUNTAINS/TRANS PECOS

CITY           SKY/WX    TMP DP  RH WIND       PRES   REMARKS
ALPINE         CLOUDY    55  53  92 SW5       30.18R
DRYDEN           N/A     65  61  87 NE7       30.03R
EL PASO        MOCLDY    59  54  83 NE6       30.06S
FORT STOCKTON  CLOUDY    61  59  93 E6        30.07F
MARFA          CLOUDY    54  52  94 E12       30.14F
PRESIDIO       CLOUDY    64  61  88 CALM      30.02R
$$

TXZ014-016-019-021>030-083-211200
TEXAS TECH WEST TEXAS MESONET/TEXAS PANHANDLE/NORTHERN SOUTH PLAINS

CITY           SKY/WX    TMP DP  RH WIND       PRES   REMARKS
ABERNATHY 5ENE   N/A     49  47  95 W1        30.12S
AMARILLO 9NNE    N/A     49  47  94 S1        30.11S
AMARILLO 7SSE    N/A     49  49  98 CALM      30.13R
AMHERST 1NE      N/A     49  47  94 NW5       30.13R
BOOTLEG 11WNW    N/A     51  49  91 W7        30.16R
CANADIAN 6E      N/A     54  52  94 N3        30.06R
CAPROCK CYN SP   N/A     63  52  66 SW8       30.09S
CHILDRESS 2NNE   N/A     61  55  78 SW2       30.07R
CLARENDON 2WSW   N/A     57  52  82 SW2       30.09S
DIMMITT 2NE      N/A     53  49  88 SW5       30.13R
FLOYDADA 2NNE    N/A     50  49  96 SW2       30.11S
FRIONA 2NE       N/A     48  47  95 SW3       30.14S
GOODLETT 3W      N/A     57  52  82 S5        30.06R
HART 3N          N/A     49  47  94 SW3       30.12S
HEREFORD 2NW     N/A     49  46  91 W6        30.13S
MCLEAN 1E        N/A     58  53  81 SW3       30.08S
MEMPHIS 1NE      N/A     55  51  85 NW2       30.07S
MULESHOE 2SSW    N/A     45  44  97 SW1       30.14R
OLTON 6S         N/A     49  47  93 W2        30.12S
PALO DURO SP     N/A     55  51  84 NW1       30.13S
PAMPA 2E         N/A     56  51  85 SW5       30.10S
PLAINVIEW 1S     N/A     50  49  95 CALM      30.11S
SILVERTON 7ESE   N/A     52  50  90 W6        30.11S
TULIA 2ENE       N/A     55  51  86 SW5       30.12R
TURKEY 2WSW      N/A     58  53  83 SW8       30.08R
UMBARGER 3NNE    N/A     52  49  91 SW7       30.13R
$$

TXZ033>036-039>041-045>048-211200
TEXAS TECH WEST TEXAS MESONET/SOUTH PLAINS

CITY           SKY/WX    TMP DP  RH WIND       PRES   REMARKS
AIKEN 3WSW       N/A     49  48  97 W5        30.13S
ANDREWS 2NE      N/A     56  51  81 SW3       30.10S
ANTON 6SSW       N/A     50  49  95 NW3       30.12R
BROWNFIELD 2S    N/A     51  48  87 CALM      30.11R
DENVR CTY 7WNW   N/A     50  48  92 NW5       30.12R
GAIL 2ESE        N/A     55  51  86 CALM      30.09R
LAMESA 2SE       N/A     51  49  92 SE2       30.11R
LEVELLAND 4S     N/A     47  45  91 W5        30.12S
LUBBOCK 3WNW     N/A     50  47  90 NW1       30.12R
MORTON 1ENE      N/A     48  47  97 NW3       30.13R
ODONNELL 1N      N/A     55  49  80 SE1       30.10S
PLAINS 3N        N/A     50  47  89 CALM      30.12S
RALLS 1SE        N/A     54  50  86 SW1       30.12R
REESE CENTER     N/A     49  47  92 NW5       30.11S
SEMINOLE 2NNE    N/A     52  48  86 NE2       30.11R
SLATON 2NE       N/A     53  49  86 SW7       30.10S
SNYDER 3E        N/A     56  53  89 S6        30.09R
SUNDOWN 8SW      N/A     49  47  92 W5        30.12R
TAHOKA 3NNE      N/A     49  46  90 SE2       30.10S
WOLFFORTH 6SSW   N/A     49  47  93 W1        30.12R
$$

TXZ031-032-036>038-042>044-211200-
TEXAS TECH WEST TEXAS MESONET/ROLLING PLAINS

CITY           SKY/WX    TMP DP  RH WIND       PRES   REMARKS
ASPERMONT 3NE    N/A     53  50  92 SW1       30.07S
FLUVANNA 3WNW    N/A     55  50  85 E3        30.09S
GRAHAM 5SSW      N/A     60  51  71 SE1       30.10S
GUTHRIE 10WSW    N/A     58  53  85 SW2       30.07S
HASKELL 1NW      N/A     60  53  77 S3        30.06S
JAYTON 1SSE      N/A     54  52  91 W3        30.08S
KNOX CITY 3NW    N/A     57  52  84 S1        30.07R
LK A HENRY 1NW   N/A     56  52  85 NW2       30.08S
NORTHFIELD 1S    N/A     56  54  93 W3        30.08R
ODELL 4ENE       N/A     62  56  81 S6        30.06S
PADUCAH 10SW     N/A     62  53  72 SW9       30.07R
POST 1NE         N/A     56  51  82 NE2       30.09S
RRING SPRGS 3N   N/A     56  53  88 W6        30.09S
SEYMOUR 3NW      N/A     59  54  84 S3        30.06S
SPUR 1W          N/A     51  48  90 NW3       30.08S
WEINERT 2NNE     N/A     56  53  88 S5        30.07R
WHITE RVR 6NE    N/A     61  51  70 SW5       30.09S
$$

TXZ052-054-060>062-072-078-127-140-154-169-211200-
TEXAS TECH WEST TEXAS MESONET/PERMIAN BASIN/
CONCHO VALLEY/BIG COUNTRY/EDWARDS PLATEAU

CITY           SKY/WX    TMP DP  RH WIND       PRES   REMARKS
COYANOSA 2N      N/A     60  59  94 E5        30.07S
JUNCTION 1SSW    N/A     51  51  97 CALM      30.08S
MERTZON 3NNE     N/A     53  49  86 CALM      30.09S
SAN ANGELO 7NW   N/A     54  49  85 N1        30.08S
STRLNG CT 4WSW   N/A     54  50  85 NE1       30.10R
ST LAWRNCE 5SW   N/A     57  52  84 SE5       30.09S
SWEETWATR 11SW   N/A     56  53  90 SE6       30.10S
WALL 1E          N/A     56  51  84 NW2       30.08R
$$

TXZ055-058-074-075-080-082-211200-
TEXAS TECH WEST TEXAS MESONET/FAR WEST/SOUTHWEST MOUNTAINS/TRANS PECOS

CITY           SKY/WX    TMP DP  RH WIND       PRES   REMARKS
PRSMN GAP BBNP   N/A     65  59  80 N13       30.03S
GUADLPE MTN NP   N/A     53  52  96 N3        30.16S
$$



USA.gov is the U.S. government's official web portal to all federal, state and local government web resources and services.